Weather History for KTVL - September, 2013

Change the Weather History Date:

Saturday, September 14, 2013

  Actual Average Record
Temperature  
Mean Temperature 62 °F 55 °F  
Max Temperature 79 °F 74 °F 88 °F (1990)
Min Temperature 44 °F 35 °F 22 °F (1970)
Degree Days  
Heating Degree Days 3 10  
Month to date heating degree days 39 125  
Since 1 July heating degree days 215 421  
Cooling Degree Days 0 0  
Month to date cooling degree days 4 0  
Year to date cooling degree days 102 30  
Growing Degree Days 11 (Base 50)    
Moisture  
Dew Point 44 °F    
Average Humidity 55    
Maximum Humidity 83    
Minimum Humidity 26    
Precipitation  
Precipitation T in - 0.14 in (1978)
Month to date precipitation 0.32  
Year to date precipitation 6.76  
Sea Level Pressure  
Sea Level Pressure 29.90 in    
Wind  
Wind Speed 1 mph (NE)    
Max Wind Speed 6 mph    
Max Gust Speed 10 mph    
Visibility 10 miles    
Events      
T = Trace of Precipitation, MM = Missing Value Source: NWS Daily Summary

Daily Weather History Graph

Daily Weather History Graph

Search for Another Location

Airport or City:

Trip Planner

Search our weather history database for the weather conditions in past years. The results will help you decide how hot, cold, wet, or windy it might be!

Date:

Astronomy

Sep. 14, 2013 Rise Set
Actual Time 6:40 AM PDT 7:09 PM PDT
Civil Twilight 6:14 AM PDT 7:36 PM PDT
Nautical Twilight 5:42 AM PDT 8:07 PM PDT
Astronomical Twilight 5:10 AM PDT 8:39 PM PDT
Moon 3:52 PM PDT (9/14) 1:20 AM PDT (9/14)
Length of Visible Light 13h 21m
Length of Day
12h 28m
Waxing Gibbous, 73% of the Moon is Illuminated
Sep 14
Waxing Gibbous
Sep 19
Full
Sep 26
Last Quarter
Oct 4
New
Oct 11
First Quarter

Hourly Weather History & Observations

Time (PDT) Temp. Windchill Dew Point Humidity Pressure Visibility Wind Dir Wind Speed Gust Speed Precip Events Conditions
12:53 AM 51.1 °F - 45.0 °F 80% 29.92 in 10.0 mi Calm Calm - N/A   Clear
1:53 AM 50.0 °F - 44.1 °F 80% 29.90 in 10.0 mi Calm Calm - N/A   Clear
2:53 AM 48.9 °F - 43.0 °F 80% 29.91 in 10.0 mi South 3.5 mph - N/A   Clear
3:53 AM 48.0 °F - 42.1 °F 80% 29.92 in 10.0 mi Calm Calm - N/A   Clear
4:53 AM 46.0 °F - 41.0 °F 83% 29.93 in 10.0 mi Calm Calm - N/A   Clear
5:53 AM 45.0 °F - 39.9 °F 82% 29.94 in 10.0 mi Calm Calm - N/A   Clear
6:53 AM 44.1 °F 42.5 °F 39.0 °F 82% 29.96 in 10.0 mi South 3.5 mph - N/A   Clear
7:53 AM 48.0 °F - 42.1 °F 80% 29.96 in 10.0 mi Calm Calm - N/A   Clear
8:53 AM 57.0 °F - 46.0 °F 67% 29.94 in 10.0 mi Calm Calm - N/A   Clear
9:53 AM 68.0 °F - 46.0 °F 45% 29.92 in 10.0 mi Calm Calm - N/A   Clear
10:53 AM 72.0 °F - 48.0 °F 43% 29.91 in 10.0 mi NE 6.9 mph - N/A   Clear
11:53 AM 73.9 °F - 45.0 °F 35% 29.90 in 10.0 mi NNE 5.8 mph - N/A   Clear
12:53 PM 77.0 °F - 44.1 °F 31% 29.88 in 10.0 mi Calm Calm - N/A   Clear
1:53 PM 78.1 °F - 41.0 °F 27% 29.86 in 10.0 mi NNE 9.2 mph - N/A   Clear
2:53 PM 77.0 °F - 39.9 °F 26% 29.86 in 10.0 mi Calm Calm - N/A   Scattered Clouds
3:53 PM 73.9 °F - 42.1 °F 32% 29.86 in 10.0 mi Calm Calm - 0.00 in   Unknown
4:53 PM 73.0 °F - 46.0 °F 38% 29.86 in 10.0 mi Calm Calm - N/A   Partly Cloudy
5:53 PM 73.0 °F - 46.0 °F 38% 29.87 in 10.0 mi North 4.6 mph - N/A   Overcast
6:53 PM 68.0 °F - 48.0 °F 49% 29.89 in 10.0 mi Calm Calm - N/A   Partly Cloudy
7:53 PM 64.0 °F - 46.9 °F 54% 29.91 in 10.0 mi Calm Calm - N/A   Scattered Clouds
8:53 PM 61.0 °F - 45.0 °F 56% 29.90 in 10.0 mi Calm Calm - N/A   Clear
9:53 PM 57.0 °F - 45.0 °F 64% 29.88 in 10.0 mi Calm Calm - N/A   Clear
10:53 PM 55.0 °F - 44.1 °F 67% 29.88 in 10.0 mi Calm Calm - N/A   Clear
11:53 PM 52.0 °F - 43.0 °F 71% 29.88 in 10.0 mi Calm Calm - N/A   Clear